Portada
METAR-TAF:

METAR-TAF

Aeropuertos :

Aeropuerto Yariguíes

Barrancabermeja, Colombia

latitud: 07-01N, longitud: 073-48W, altitud: 126 m

Observación

El informe se hizo hace 1 hora y 19 minutos, a las 19:00 UTC
Viento 4 kt del noroeste
Temperatura 33°C
Humedad 49%
Presión 1007 hPa
Visibilidad 10 km o más
Escasas nubes a una altura de 2000 ft

METAR: SKEJ 181900Z 32004KT 9999 FEW020 33/21 A2975

Hora: 15:19 (20:19 UTC)


TAF: falta

Observaciones y pronósticos meteorológicos de más de 4000 aeropuertos (mensajes METAR y TAF).

Los puntos amarillos y rojos representan las estaciones disponibles.

Ponga el ratón en el punto deseado para ver el nombre de la estación.

Haga clic para ver las observaciones y los pronósticos meteorológicos.

Para cambiar el mapa : haga clic en los botones verdes con una cruz de color negro para hacer un zoom, en el botón verde con un guión para alejar o en las flechas verdes para mapas adyacentes.


METAR-TAF: